Weather in Suwon

South Korea     37°16′49″N   127°00′09″E
temp.,
°C
wind,
m/s
gust,
m/s
humid.,
%
clouds,
%
prec.,
mm/h
press.,
hPa
HPBL,
m
23 april, fri
fri2300:00+19n1126100 0.0 101847
03:00+19sw1127100 0.0 101823
06:00+18e2534100 0.1 1019212
09:00+19e61024100 0.1 10201481
12:00+20e51123100 0.0 10201690
15:00+21e5829100 0.0 10181949
18:00+21e452899 0.0 10191716
21:00+19ese3535100 0.0 1021814
24 april, sat
sat2400:00+17ene364099 0.0 1021624
03:00+15ne2544100 0.0 1020428
06:00+15ne2444100 0.0 1021349
09:00+17e2334100 0.0 1021593
12:00+22ene1118100 0.0 10201391
15:00+22nw342299 0.0 10191753
18:00+20nw443983 0.0 10191146
21:00+18wnw34422 0.0 1019433
25 april, sun
sun2500:00+16wnw13520 0.0 1019178
03:00+15wsw11540 0.0 101821
06:00+14se11575 0.0 101944
09:00+17ese45480 0.0 1020861
12:00+21ese33387 0.0 10201654
15:00+22e213392 0.0 10172272
18:00+22ese113474 0.0 10181556
21:00+20s124151 0.0 1019338
26 april, mon
mon2600:00+17sse3648100 0.0 1021591
03:00+15se3644100 0.0 1021544
06:00+14sse244696 0.0 1022402
09:00+16sse225188 0.0 1022824
12:00+20ssw123952 0.0 10211665
15:00+21w43395 0.0 10191570
18:00+18wnw4447100 0.0 1019532
21:00+15wnw2463100 0.0 1021389
27 april, tue
tue2700:00+15w2366100 0.0 1021378
03:00+14w1162100 0.0 1020264
06:00+14sw1159100 0.0 1019248
09:00+15sse2350100 0.0 1018550
12:00+19sw4640100 0.0 10171381
15:00+17wsw5841100 0.0 1017829
18:00+16sw3853100 0.0 1016925
21:00+15sw4965100 0.0 1017877